Time,TemperatureF,DewpointF,PressureIn,WindDirection,WindDirectionDegrees,WindSpeedMPH,WindSpeedGustMPH,Humidity,HourlyPrecipIn,Conditions,Clouds,dailyrainin,SoftwareType,DateUTC
2013-02-11 00:01:00,21.4,20.3,30.23,South,180,0.0,0.0,96,0.00,,,0.02,WUHU21623XXSP,2013-02-11 08:01:00,
2013-02-11 00:06:00,21.0,20.0,30.23,South,180,0.0,0.0,96,0.00,,,0.00,WUHU21623XXSP,2013-02-11 08:06:00,
2013-02-11 00:11:00,21.4,20.3,30.22,South,180,0.0,0.0,96,0.00,,,0.00,WUHU21623XXSP,2013-02-11 08:11:00,
2013-02-11 00:16:00,21.4,20.3,30.23,South,180,0.0,0.0,96,0.00,,,0.00,WUHU21623XXSP,2013-02-11 08:16:00,
2013-02-11 00:21:00,21.4,20.3,30.23,South,180,0.0,0.0,96,0.00,,,0.00,WUHU21623XXSP,2013-02-11 08:21:00,
2013-02-11 00:26:00,21.4,20.3,30.23,South,180,0.0,0.0,96,0.00,,,0.00,WUHU21623XXSP,2013-02-11 08:26:00,
2013-02-11 00:31:00,21.6,20.5,30.22,South,180,0.0,0.0,96,0.00,,,0.00,WUHU21623XXSP,2013-02-11 08:31:00,
2013-02-11 00:36:00,21.6,20.5,30.22,South,180,0.0,0.0,96,0.00,,,0.00,WUHU21623XXSP,2013-02-11 08:36:00,
2013-02-11 00:41:00,21.7,20.6,30.22,South,180,0.0,0.0,96,0.00,,,0.00,WUHU21623XXSP,2013-02-11 08:41:00,
2013-02-11 00:46:00,21.9,20.8,30.22,South,180,0.0,0.0,96,0.00,,,0.00,WUHU21623XXSP,2013-02-11 08:46:00,
2013-02-11 00:51:00,22.1,21.0,30.22,South,180,0.0,0.0,96,0.00,,,0.00,WUHU21623XXSP,2013-02-11 08:51:00,
2013-02-11 00:56:00,22.3,21.2,30.22,South,180,0.0,0.0,96,0.00,,,0.00,WUHU21623XXSP,2013-02-11 08:56:00,
2013-02-11 01:01:00,22.5,21.4,30.22,South,180,0.0,0.0,96,0.00,,,0.00,WUHU21623XXSP,2013-02-11 09:01:00,
2013-02-11 01:06:00,22.6,21.5,30.22,South,180,0.0,0.0,96,0.00,,,0.00,WUHU21623XXSP,2013-02-11 09:06:00,
2013-02-11 01:11:00,22.6,21.5,30.22,South,180,0.0,0.0,96,0.00,,,0.00,WUHU21623XXSP,2013-02-11 09:11:00,
2013-02-11 01:16:00,22.8,21.7,30.22,South,180,0.0,0.0,96,0.00,,,0.00,WUHU21623XXSP,2013-02-11 09:16:00,
2013-02-11 01:21:00,22.8,21.7,30.22,South,180,0.0,0.0,96,0.00,,,0.00,WUHU21623XXSP,2013-02-11 09:21:00,
2013-02-11 01:26:00,23.2,22.4,30.22,South,180,0.0,0.0,97,0.00,,,0.00,WUHU21623XXSP,2013-02-11 09:26:00,
2013-02-11 01:31:00,23.2,22.4,30.22,South,180,0.0,0.0,97,0.00,,,0.00,WUHU21623XXSP,2013-02-11 09:31:00,
2013-02-11 01:36:00,23.2,22.4,30.22,South,180,0.0,0.0,97,0.00,,,0.00,WUHU21623XXSP,2013-02-11 09:36:00,
2013-02-11 01:41:00,23.5,22.7,30.22,South,180,0.0,0.0,97,0.00,,,0.00,WUHU21623XXSP,2013-02-11 09:41:00,
2013-02-11 01:46:00,23.9,23.1,30.22,South,180,0.0,0.0,97,0.00,,,0.00,WUHU21623XXSP,2013-02-11 09:46:00,
2013-02-11 01:51:00,24.4,23.6,30.22,South,180,0.0,0.0,97,0.00,,,0.00,WUHU21623XXSP,2013-02-11 09:51:00,
2013-02-11 01:56:00,24.6,23.8,30.22,South,180,0.0,0.0,97,0.00,,,0.00,WUHU21623XXSP,2013-02-11 09:56:00,
2013-02-11 02:02:00,25.2,24.4,30.23,South,180,0.0,0.0,97,0.00,,,0.00,WUHU21623XXSP,2013-02-11 10:02:00,
2013-02-11 02:07:00,25.3,24.5,30.22,South,180,0.0,0.0,97,0.00,,,0.00,WUHU21623XXSP,2013-02-11 10:07:00,
2013-02-11 02:12:00,25.3,24.5,30.22,South,180,0.0,0.0,97,0.00,,,0.00,WUHU21623XXSP,2013-02-11 10:12:00,
2013-02-11 02:18:00,25.3,24.5,30.23,South,180,0.0,0.0,97,0.00,,,0.00,WUHU21623XXSP,2013-02-11 10:18:00,
2013-02-11 02:22:00,25.3,24.5,30.22,South,180,0.0,0.0,97,0.00,,,0.00,WUHU21623XXSP,2013-02-11 10:22:00,
2013-02-11 02:28:00,25.5,24.7,30.22,South,180,0.0,0.0,97,0.00,,,0.00,WUHU21623XXSP,2013-02-11 10:28:00,
2013-02-11 02:32:00,25.5,24.7,30.22,South,180,0.0,0.0,97,0.00,,,0.00,WUHU21623XXSP,2013-02-11 10:32:00,
2013-02-11 02:37:00,25.9,25.1,30.23,South,180,0.0,0.0,97,0.00,,,0.00,WUHU21623XXSP,2013-02-11 10:37:00,
2013-02-11 02:42:00,25.9,25.1,30.23,South,180,0.0,0.0,97,0.00,,,0.00,WUHU21623XXSP,2013-02-11 10:42:00,
2013-02-11 02:47:00,25.9,25.1,30.23,South,180,0.0,0.0,97,0.00,,,0.00,WUHU21623XXSP,2013-02-11 10:47:00,
2013-02-11 02:52:00,26.1,25.3,30.23,South,180,0.0,0.0,97,0.00,,,0.00,WUHU21623XXSP,2013-02-11 10:52:00,
2013-02-11 02:57:00,26.1,25.3,30.22,South,180,0.0,0.0,97,0.00,,,0.00,WUHU21623XXSP,2013-02-11 10:57:00,
2013-02-11 03:02:00,25.9,25.1,30.22,South,180,0.0,0.0,97,0.00,,,0.00,WUHU21623XXSP,2013-02-11 11:02:00,
2013-02-11 03:07:00,25.9,25.1,30.22,South,180,0.0,0.0,97,0.00,,,0.00,WUHU21623XXSP,2013-02-11 11:07:00,
2013-02-11 03:12:00,25.9,25.1,30.22,South,180,0.0,0.0,97,0.00,,,0.00,WUHU21623XXSP,2013-02-11 11:12:00,
2013-02-11 03:17:00,25.9,25.1,30.22,South,180,0.0,0.0,97,0.00,,,0.00,WUHU21623XXSP,2013-02-11 11:17:00,
2013-02-11 03:22:00,25.9,25.1,30.22,South,180,0.0,0.0,97,0.00,,,0.00,WUHU21623XXSP,2013-02-11 11:22:00,
2013-02-11 03:27:00,25.9,25.1,30.22,South,180,0.0,0.0,97,0.00,,,0.00,WUHU21623XXSP,2013-02-11 11:27:00,
2013-02-11 03:32:00,26.1,25.3,30.23,South,180,0.0,0.0,97,0.00,,,0.00,WUHU21623XXSP,2013-02-11 11:32:00,
2013-02-11 03:37:00,26.2,25.4,30.23,South,180,0.0,0.0,97,0.00,,,0.00,WUHU21623XXSP,2013-02-11 11:37:00,
2013-02-11 03:42:00,26.2,25.4,30.23,South,180,0.0,0.0,97,0.00,,,0.00,WUHU21623XXSP,2013-02-11 11:42:00,
2013-02-11 03:47:00,26.4,25.6,30.22,South,180,0.0,0.0,97,0.00,,,0.00,WUHU21623XXSP,2013-02-11 11:47:00,
2013-02-11 03:52:00,26.4,25.6,30.23,South,180,0.0,0.0,97,0.00,,,0.00,WUHU21623XXSP,2013-02-11 11:52:00,
2013-02-11 03:57:00,26.4,25.6,30.23,South,180,0.0,0.0,97,0.00,,,0.00,WUHU21623XXSP,2013-02-11 11:57:00,
2013-02-11 04:02:00,26.2,25.4,30.23,South,180,0.0,0.0,97,0.00,,,0.00,WUHU21623XXSP,2013-02-11 12:02:00,
2013-02-11 04:07:00,26.4,25.8,30.23,South,180,0.0,0.0,98,0.00,,,0.00,WUHU21623XXSP,2013-02-11 12:07:00,
2013-02-11 04:12:00,26.4,25.8,30.23,South,180,0.0,0.0,98,0.00,,,0.00,WUHU21623XXSP,2013-02-11 12:12:00,
2013-02-11 04:17:00,26.4,25.8,30.23,South,180,0.0,0.0,98,0.00,,,0.00,WUHU21623XXSP,2013-02-11 12:17:00,
2013-02-11 04:23:00,26.4,25.8,30.22,South,180,0.0,0.0,98,0.00,,,0.00,WUHU21623XXSP,2013-02-11 12:23:00,
2013-02-11 04:28:00,26.4,25.8,30.22,South,180,0.0,0.0,98,0.00,,,0.00,WUHU21623XXSP,2013-02-11 12:28:00,
2013-02-11 04:32:00,26.4,25.8,30.21,South,180,0.0,0.0,98,0.00,,,0.00,WUHU21623XXSP,2013-02-11 12:32:00,
2013-02-11 04:37:00,26.4,25.8,30.20,South,180,0.0,0.0,98,0.00,,,0.00,WUHU21623XXSP,2013-02-11 12:37:00,
2013-02-11 04:42:00,26.4,25.8,30.21,South,180,0.0,0.0,98,0.00,,,0.00,WUHU21623XXSP,2013-02-11 12:42:00,
2013-02-11 04:47:00,26.4,25.8,30.21,South,180,0.0,0.0,98,0.00,,,0.00,WUHU21623XXSP,2013-02-11 12:47:00,
2013-02-11 04:52:00,26.2,25.6,30.22,South,180,0.0,0.0,98,0.00,,,0.00,WUHU21623XXSP,2013-02-11 12:52:00,
2013-02-11 04:57:00,26.4,25.8,30.21,South,180,0.0,0.0,98,0.00,,,0.00,WUHU21623XXSP,2013-02-11 12:57:00,
2013-02-11 05:02:00,26.4,25.8,30.21,South,180,0.0,0.0,98,0.00,,,0.00,WUHU21623XXSP,2013-02-11 13:02:00,
2013-02-11 05:07:00,26.4,25.8,30.21,South,180,0.0,0.0,98,0.00,,,0.00,WUHU21623XXSP,2013-02-11 13:07:00,
2013-02-11 05:12:00,26.4,25.8,30.21,South,180,0.0,0.0,98,0.00,,,0.00,WUHU21623XXSP,2013-02-11 13:12:00,
2013-02-11 05:17:00,26.4,25.8,30.21,South,180,0.0,0.0,98,0.00,,,0.00,WUHU21623XXSP,2013-02-11 13:17:00,
2013-02-11 05:22:00,26.6,26.0,30.21,South,180,0.0,0.0,98,0.00,,,0.00,WUHU21623XXSP,2013-02-11 13:22:00,
2013-02-11 05:28:00,26.6,26.0,30.21,South,180,0.0,0.0,98,0.00,,,0.00,WUHU21623XXSP,2013-02-11 13:28:00,
2013-02-11 05:33:00,26.6,26.0,30.21,South,180,0.0,0.0,98,0.00,,,0.00,WUHU21623XXSP,2013-02-11 13:33:00,
2013-02-11 05:38:00,26.6,26.0,30.21,South,180,0.0,0.0,98,0.00,,,0.00,WUHU21623XXSP,2013-02-11 13:38:00,
2013-02-11 05:43:00,26.6,26.0,30.21,South,180,0.0,0.0,98,0.00,,,0.00,WUHU21623XXSP,2013-02-11 13:43:00,
2013-02-11 05:48:00,26.8,26.2,30.21,South,180,0.0,0.0,98,0.00,,,0.00,WUHU21623XXSP,2013-02-11 13:48:00,
2013-02-11 05:53:00,26.6,26.0,30.21,South,180,0.0,0.0,98,0.00,,,0.00,WUHU21623XXSP,2013-02-11 13:53:00,
2013-02-11 05:58:00,26.6,26.0,30.21,South,180,0.0,0.0,98,0.00,,,0.00,WUHU21623XXSP,2013-02-11 13:58:00,
2013-02-11 06:03:00,26.4,25.8,30.21,South,180,0.0,0.0,98,0.00,,,0.00,WUHU21623XXSP,2013-02-11 14:03:00,
2013-02-11 06:08:00,26.4,25.8,30.21,South,180,0.0,0.0,98,0.00,,,0.00,WUHU21623XXSP,2013-02-11 14:08:00,
2013-02-11 06:13:00,26.4,25.8,30.21,South,180,0.0,0.0,98,0.00,,,0.00,WUHU21623XXSP,2013-02-11 14:13:00,
2013-02-11 06:18:00,26.4,25.8,30.20,South,180,0.0,0.0,98,0.00,,,0.00,WUHU21623XXSP,2013-02-11 14:18:00,
2013-02-11 06:23:00,26.2,25.6,30.20,South,180,0.0,0.0,98,0.00,,,0.00,WUHU21623XXSP,2013-02-11 14:23:00,
2013-02-11 06:28:00,26.1,25.5,30.21,South,180,0.0,0.0,98,0.00,,,0.00,WUHU21623XXSP,2013-02-11 14:28:00,
2013-02-11 06:33:00,26.1,25.5,30.20,South,180,0.0,0.0,98,0.00,,,0.00,WUHU21623XXSP,2013-02-11 14:33:00,
2013-02-11 06:38:00,26.1,25.5,30.21,South,180,0.0,0.0,98,0.00,,,0.00,WUHU21623XXSP,2013-02-11 14:38:00,
2013-02-11 06:43:00,26.2,25.6,30.21,South,180,0.0,0.0,98,0.00,,,0.00,WUHU21623XXSP,2013-02-11 14:43:00,
2013-02-11 06:48:00,26.2,25.6,30.21,South,180,0.0,0.0,98,0.00,,,0.00,WUHU21623XXSP,2013-02-11 14:48:00,
2013-02-11 06:53:00,26.2,25.6,30.22,South,180,0.0,0.0,98,0.00,,,0.00,WUHU21623XXSP,2013-02-11 14:53:00,
2013-02-11 06:58:00,26.4,25.8,30.22,South,180,0.0,0.0,98,0.00,,,0.00,WUHU21623XXSP,2013-02-11 14:58:00,
2013-02-11 07:03:00,26.4,25.8,30.22,South,180,0.0,0.0,98,0.00,,,0.00,WUHU21623XXSP,2013-02-11 15:03:00,
2013-02-11 07:08:00,26.6,26.0,30.22,South,180,0.0,0.0,98,0.00,,,0.00,WUHU21623XXSP,2013-02-11 15:08:00,
2013-02-11 07:13:00,26.8,26.2,30.22,South,180,0.0,0.0,98,0.00,,,0.00,WUHU21623XXSP,2013-02-11 15:13:00,
2013-02-11 07:18:00,27.0,26.4,30.22,South,180,0.0,0.0,98,0.00,,,0.00,WUHU21623XXSP,2013-02-11 15:18:00,
2013-02-11 07:23:00,27.0,26.4,30.22,South,180,0.0,0.0,98,0.00,,,0.00,WUHU21623XXSP,2013-02-11 15:23:00,
2013-02-11 07:28:00,27.0,26.4,30.22,South,180,0.0,0.0,98,0.00,,,0.00,WUHU21623XXSP,2013-02-11 15:28:00,
2013-02-11 07:33:00,27.0,26.4,30.22,South,180,0.0,0.0,98,0.00,,,0.00,WUHU21623XXSP,2013-02-11 15:33:00,
2013-02-11 07:38:00,27.1,26.5,30.22,South,180,0.0,0.0,98,0.00,,,0.00,WUHU21623XXSP,2013-02-11 15:38:00,
2013-02-11 07:43:00,27.3,26.7,30.22,South,180,0.0,0.0,98,0.00,,,0.00,WUHU21623XXSP,2013-02-11 15:43:00,
2013-02-11 07:46:00,27.3,26.7,30.22,South,180,0.0,0.0,98,0.00,,,0.00,WUHU21623XXSP,2013-02-11 15:46:00,
2013-02-11 07:50:00,27.5,26.9,30.22,South,180,0.0,0.0,98,0.00,,,0.00,WUHU21623XXSP,2013-02-11 15:50:00,
2013-02-11 07:57:00,27.7,27.1,30.22,South,180,0.0,0.0,98,0.00,,,0.00,WUHU21623XXSP,2013-02-11 15:57:00,
2013-02-11 08:03:00,28.0,27.4,30.23,South,180,0.0,0.0,98,0.00,,,0.00,WUHU21623XXSP,2013-02-11 16:03:00,
2013-02-11 08:17:00,28.0,27.4,30.22,South,180,0.0,0.0,98,0.00,,,0.00,WUHU21623XXSP,2013-02-11 16:17:00,
2013-02-11 08:22:00,28.2,27.6,30.22,South,180,0.0,0.0,98,0.00,,,0.00,WUHU21623XXSP,2013-02-11 16:22:00,
2013-02-11 08:27:00,28.2,27.6,30.22,South,180,0.0,0.0,98,0.00,,,0.00,WUHU21623XXSP,2013-02-11 16:27:00,
2013-02-11 08:32:00,28.6,28.0,30.23,South,180,0.0,0.0,98,0.00,,,0.00,WUHU21623XXSP,2013-02-11 16:32:00,
2013-02-11 08:37:00,28.9,28.3,30.23,South,180,0.0,0.0,98,0.00,,,0.00,WUHU21623XXSP,2013-02-11 16:37:00,
2013-02-11 08:42:00,29.8,29.5,30.22,South,180,0.0,0.0,99,0.00,,,0.00,WUHU21623XXSP,2013-02-11 16:42:00,
2013-02-11 08:48:00,30.2,29.9,30.23,South,180,0.0,0.0,99,0.00,,,0.00,WUHU21623XXSP,2013-02-11 16:48:00,
2013-02-11 08:53:00,30.9,30.6,30.23,South,180,0.0,0.0,99,0.00,,,0.00,WUHU21623XXSP,2013-02-11 16:53:00,
2013-02-11 08:58:00,31.1,30.8,30.22,South,180,0.0,0.0,99,0.00,,,0.00,WUHU21623XXSP,2013-02-11 16:58:00,
2013-02-11 09:03:00,31.3,31.0,30.22,South,180,0.0,0.0,99,0.00,,,0.00,WUHU21623XXSP,2013-02-11 17:03:00,
2013-02-11 09:08:00,31.8,31.5,30.22,South,180,0.0,0.0,99,0.00,,,0.00,WUHU21623XXSP,2013-02-11 17:08:00,
2013-02-11 09:13:00,32.7,32.6,30.22,South,180,0.0,0.0,100,0.00,,,0.00,WUHU21623XXSP,2013-02-11 17:13:00,
2013-02-11 09:16:00,33.8,33.7,30.22,South,180,0.0,0.0,100,0.00,,,0.00,WUHU21623XXSP,2013-02-11 17:16:00,
2013-02-11 09:22:00,34.3,34.2,30.22,South,180,0.0,0.0,100,0.00,,,0.00,WUHU21623XXSP,2013-02-11 17:22:00,
2013-02-11 09:27:00,36.1,36.0,30.22,South,180,0.0,0.0,100,0.00,,,0.00,WUHU21623XXSP,2013-02-11 17:27:00,
2013-02-11 09:33:00,38.1,35.9,30.23,SSE,157,7.4,7.4,92,0.00,,,0.00,WUHU21623XXSP,2013-02-11 17:33:00,
2013-02-11 09:48:00,35.4,31.5,30.23,SE,135,4.0,4.7,86,0.00,,,0.00,WUHU21623XXSP,2013-02-11 17:48:00,
2013-02-11 09:53:00,34.7,30.9,30.24,SE,135,0.0,4.7,86,0.00,,,0.00,WUHU21623XXSP,2013-02-11 17:53:00,
2013-02-11 09:58:00,34.5,31.2,30.24,SE,135,0.0,0.0,88,0.00,,,0.00,WUHU21623XXSP,2013-02-11 17:58:00,
2013-02-11 10:03:00,34.9,31.6,30.24,SE,135,0.0,0.0,88,0.00,,,0.00,WUHU21623XXSP,2013-02-11 18:03:00,
2013-02-11 10:08:00,35.1,31.5,30.24,SE,135,0.0,0.0,87,0.00,,,0.00,WUHU21623XXSP,2013-02-11 18:08:00,
2013-02-11 10:13:00,35.2,31.6,30.25,SE,135,0.0,0.0,87,0.00,,,0.00,WUHU21623XXSP,2013-02-11 18:13:00,
2013-02-11 10:18:00,35.2,31.3,30.24,SE,135,0.0,0.0,86,0.00,,,0.00,WUHU21623XXSP,2013-02-11 18:18:00,
2013-02-11 10:23:00,35.2,31.3,30.24,SE,135,0.0,0.0,86,0.00,,,0.00,WUHU21623XXSP,2013-02-11 18:23:00,
2013-02-11 10:28:00,35.2,31.3,30.24,SE,135,0.0,0.0,86,0.00,,,0.00,WUHU21623XXSP,2013-02-11 18:28:00,
2013-02-11 10:33:00,35.4,31.5,30.24,SE,135,0.0,0.0,86,0.00,,,0.00,WUHU21623XXSP,2013-02-11 18:33:00,
2013-02-11 10:38:00,35.8,31.9,30.24,SE,135,0.0,0.0,86,0.00,,,0.00,WUHU21623XXSP,2013-02-11 18:38:00,
2013-02-11 10:43:00,36.1,32.2,30.23,SE,135,0.0,0.0,86,0.00,,,0.00,WUHU21623XXSP,2013-02-11 18:43:00,
2013-02-11 10:48:00,36.3,32.1,30.24,SE,135,0.0,0.0,85,0.00,,,0.00,WUHU21623XXSP,2013-02-11 18:48:00,
2013-02-11 10:53:00,36.5,31.8,30.23,SSE,157,0.0,0.0,83,0.00,,,0.00,WUHU21623XXSP,2013-02-11 18:53:00,
2013-02-11 10:58:00,36.5,31.8,30.23,SSE,157,0.0,7.8,83,0.00,,,0.00,WUHU21623XXSP,2013-02-11 18:58:00,
2013-02-11 11:03:00,38.3,33.2,30.23,SSE,157,0.0,7.8,82,0.00,,,0.00,WUHU21623XXSP,2013-02-11 19:03:00,
2013-02-11 11:07:00,37.9,31.9,30.23,SSE,157,7.4,7.4,79,0.00,,,0.00,WUHU21623XXSP,2013-02-11 19:07:00,
2013-02-11 11:08:00,37.9,31.9,30.23,SSE,157,7.4,7.4,79,0.00,,,0.00,WUHU21623XXSP,2013-02-11 19:08:00,
2013-02-11 11:13:00,37.4,32.0,30.23,SSE,157,7.2,7.4,81,0.00,,,0.00,WUHU21623XXSP,2013-02-11 19:13:00,
2013-02-11 11:18:00,36.5,31.2,30.23,SSE,157,0.0,7.2,81,0.00,,,0.00,WUHU21623XXSP,2013-02-11 19:18:00,
2013-02-11 11:23:00,36.9,31.6,30.23,SSE,157,0.0,7.2,81,0.00,,,0.00,WUHU21623XXSP,2013-02-11 19:23:00,
2013-02-11 11:28:00,37.8,32.7,30.23,SSE,157,0.0,0.0,82,0.00,,,0.00,WUHU21623XXSP,2013-02-11 19:28:00,
2013-02-11 11:33:00,38.8,33.7,30.23,SSE,157,0.0,0.0,82,0.00,,,0.00,WUHU21623XXSP,2013-02-11 19:33:00,
2013-02-11 11:38:00,41.0,35.9,30.22,WSW,247,0.0,0.0,82,0.00,,,0.00,WUHU21623XXSP,2013-02-11 19:38:00,
2013-02-11 11:43:00,43.7,37.9,30.22,SSE,157,0.0,0.0,80,0.00,,,0.00,WUHU21623XXSP,2013-02-11 19:43:00,
2013-02-11 11:48:00,43.9,35.1,30.22,SSE,157,0.0,0.0,71,0.00,,,0.00,WUHU21623XXSP,2013-02-11 19:48:00,
2013-02-11 11:53:00,42.1,34.7,30.22,SSE,157,0.0,0.0,75,0.00,,,0.00,WUHU21623XXSP,2013-02-11 19:53:00,
2013-02-11 11:58:00,42.6,35.6,30.23,WSW,247,0.0,0.0,76,0.00,,,0.00,WUHU21623XXSP,2013-02-11 19:58:00,
2013-02-11 12:03:00,42.6,34.9,30.23,SSE,157,0.0,0.0,74,0.00,,,0.00,WUHU21623XXSP,2013-02-11 20:03:00,
2013-02-11 12:08:00,41.4,33.7,30.23,SSE,157,0.0,0.0,74,0.00,,,0.00,WUHU21623XXSP,2013-02-11 20:08:00,
2013-02-11 12:13:00,39.4,32.1,30.23,ENE,67,0.0,0.0,75,0.00,,,0.00,WUHU21623XXSP,2013-02-11 20:13:00,
2013-02-11 12:18:00,38.8,32.2,30.23,ENE,67,0.0,0.0,77,0.00,,,0.00,WUHU21623XXSP,2013-02-11 20:18:00,
2013-02-11 12:23:00,38.5,31.9,30.23,WSW,247,0.0,0.0,77,0.00,,,0.00,WUHU21623XXSP,2013-02-11 20:23:00,
2013-02-11 12:28:00,38.5,32.2,30.22,WSW,247,0.0,0.0,78,0.00,,,0.00,WUHU21623XXSP,2013-02-11 20:28:00,
2013-02-11 12:34:00,38.5,32.2,30.23,ENE,67,0.0,0.0,78,0.00,,,0.00,WUHU21623XXSP,2013-02-11 20:34:00,
2013-02-11 12:39:00,37.9,31.6,30.22,ENE,67,0.0,0.0,78,0.00,,,0.00,WUHU21623XXSP,2013-02-11 20:39:00,
2013-02-11 12:45:00,37.9,31.9,30.22,ENE,67,0.0,0.0,79,0.00,,,0.00,WUHU21623XXSP,2013-02-11 20:45:00,
2013-02-11 12:50:00,38.5,32.5,30.21,ENE,67,0.0,0.0,79,0.00,,,0.00,WUHU21623XXSP,2013-02-11 20:50:00,
2013-02-11 12:55:00,38.8,32.8,30.21,ENE,67,0.0,0.0,79,0.00,,,0.00,WUHU21623XXSP,2013-02-11 20:55:00,
2013-02-11 13:00:00,38.8,32.8,30.20,ENE,67,0.0,0.0,79,0.00,,,0.00,WUHU21623XXSP,2013-02-11 21:00:00,
2013-02-11 13:05:00,39.0,33.0,30.20,ENE,67,0.0,0.0,79,0.00,,,0.00,WUHU21623XXSP,2013-02-11 21:05:00,
2013-02-11 13:10:00,39.4,33.1,30.20,ENE,67,0.0,0.0,78,0.00,,,0.00,WUHU21623XXSP,2013-02-11 21:10:00,
2013-02-11 13:11:00,39.7,33.4,30.21,ENE,67,0.0,0.0,78,0.00,,,0.00,WUHU21623XXSP,2013-02-11 21:11:00,
2013-02-11 13:16:00,39.9,33.3,30.20,NW,315,0.0,0.0,77,0.00,,,0.00,WUHU21623XXSP,2013-02-11 21:16:00,
2013-02-11 13:22:00,39.9,33.3,30.20,WSW,247,0.0,0.0,77,0.00,,,0.00,WUHU21623XXSP,2013-02-11 21:22:00,
2013-02-11 13:28:00,39.6,32.6,30.20,WSW,247,0.0,0.0,76,0.00,,,0.00,WUHU21623XXSP,2013-02-11 21:28:00,
2013-02-11 13:42:00,39.0,32.7,30.21,WSW,247,0.0,0.0,78,0.00,,,0.00,WUHU21623XXSP,2013-02-11 21:42:00,
2013-02-11 13:47:00,38.8,32.5,30.21,WSW,247,0.0,0.0,78,0.00,,,0.00,WUHU21623XXSP,2013-02-11 21:47:00,
2013-02-11 13:52:00,38.8,32.8,30.21,WSW,247,0.0,0.0,79,0.00,,,0.00,WUHU21623XXSP,2013-02-11 21:52:00,
2013-02-11 13:57:00,39.4,33.4,30.20,WSW,247,6.3,6.3,79,0.00,,,0.00,WUHU21623XXSP,2013-02-11 21:57:00,
2013-02-11 14:02:00,39.0,33.0,30.20,WSW,247,0.0,6.3,79,0.00,,,0.00,WUHU21623XXSP,2013-02-11 22:02:00,
2013-02-11 14:07:00,38.8,32.8,30.20,WSW,247,0.0,0.0,79,0.00,,,0.00,WUHU21623XXSP,2013-02-11 22:07:00,
2013-02-11 14:12:00,38.8,32.5,30.20,WSW,247,0.0,0.0,78,0.00,,,0.00,WUHU21623XXSP,2013-02-11 22:12:00,
2013-02-11 14:17:00,38.8,32.8,30.21,NNW,337,0.0,0.0,79,0.00,,,0.00,WUHU21623XXSP,2013-02-11 22:17:00,
2013-02-11 14:22:00,38.1,32.4,30.21,NNW,337,0.0,0.0,80,0.00,,,0.00,WUHU21623XXSP,2013-02-11 22:22:00,
2013-02-11 14:29:00,37.8,32.1,30.21,NNW,337,0.0,0.0,80,0.00,,,0.00,WUHU21623XXSP,2013-02-11 22:29:00,
2013-02-11 14:34:00,37.2,31.9,30.21,NNW,337,0.0,0.0,81,0.00,,,0.00,WUHU21623XXSP,2013-02-11 22:34:00,
2013-02-11 14:40:00,37.4,32.0,30.20,NNW,337,0.0,0.0,81,0.00,,,0.00,WUHU21623XXSP,2013-02-11 22:40:00,
2013-02-11 14:45:00,37.8,32.7,30.21,NW,315,0.0,0.0,82,0.00,,,0.00,WUHU21623XXSP,2013-02-11 22:45:00,
2013-02-11 14:50:00,37.9,32.8,30.21,NW,315,0.0,0.0,82,0.00,,,0.00,WUHU21623XXSP,2013-02-11 22:50:00,
2013-02-11 14:55:00,37.8,32.7,30.21,NW,315,0.0,0.0,82,0.00,,,0.00,WUHU21623XXSP,2013-02-11 22:55:00,
2013-02-11 15:00:00,37.8,32.7,30.21,WSW,247,7.2,7.2,82,0.00,,,0.00,WUHU21623XXSP,2013-02-11 23:00:00,
2013-02-11 15:05:00,37.9,32.8,30.21,WSW,247,5.6,8.5,82,0.00,,,0.00,WUHU21623XXSP,2013-02-11 23:05:00,
2013-02-11 15:10:00,37.9,32.8,30.22,WSW,247,0.0,8.5,82,0.00,,,0.00,WUHU21623XXSP,2013-02-11 23:10:00,
2013-02-11 15:15:00,37.8,32.7,30.21,WSW,247,0.0,5.6,82,0.00,,,0.00,WUHU21623XXSP,2013-02-11 23:15:00,
2013-02-11 15:20:00,37.6,32.5,30.22,WSW,247,5.6,5.6,82,0.00,,,0.00,WUHU21623XXSP,2013-02-11 23:20:00,
2013-02-11 15:25:00,37.2,32.2,30.21,WSW,247,2.7,5.6,82,0.00,,,0.00,WUHU21623XXSP,2013-02-11 23:25:00,
2013-02-11 15:30:00,37.2,32.2,30.21,WSW,247,0.0,2.7,82,0.00,,,0.00,WUHU21623XXSP,2013-02-11 23:30:00,
2013-02-11 15:35:00,37.2,32.2,30.21,WSW,247,0.0,2.7,82,0.00,,,0.00,WUHU21623XXSP,2013-02-11 23:35:00,
2013-02-11 15:40:00,37.2,32.2,30.21,WSW,247,0.0,0.0,82,0.00,,,0.00,WUHU21623XXSP,2013-02-11 23:40:00,
2013-02-11 15:43:00,37.2,32.2,30.21,WSW,247,0.0,0.0,82,0.00,,,0.00,WUHU21623XXSP,2013-02-11 23:43:00,
2013-02-11 15:48:00,37.0,32.3,30.21,WSW,247,0.0,0.0,83,0.00,,,0.00,WUHU21623XXSP,2013-02-11 23:48:00,
2013-02-11 15:54:00,36.9,32.2,30.22,WSW,247,0.0,0.0,83,0.00,,,0.00,WUHU21623XXSP,2013-02-11 23:54:00,
2013-02-11 15:58:00,36.9,32.2,30.22,WSW,247,0.0,0.0,83,0.00,,,0.00,WUHU21623XXSP,2013-02-11 23:58:00,
2013-02-11 16:14:00,36.3,31.6,30.22,WSW,247,0.0,0.0,83,0.00,,,0.00,WUHU21623XXSP,2013-02-12 00:14:00,
2013-02-11 16:19:00,36.1,31.7,30.22,WSW,247,0.0,0.0,84,0.00,,,0.00,WUHU21623XXSP,2013-02-12 00:19:00,
2013-02-11 16:24:00,36.0,31.6,30.22,WSW,247,0.0,0.0,84,0.00,,,0.00,WUHU21623XXSP,2013-02-12 00:24:00,
2013-02-11 16:29:00,35.4,31.3,30.22,WSW,247,0.0,0.0,85,0.00,,,0.00,WUHU21623XXSP,2013-02-12 00:29:00,
2013-02-11 16:34:00,35.2,31.1,30.22,WSW,247,0.0,0.0,85,0.00,,,0.00,WUHU21623XXSP,2013-02-12 00:34:00,
2013-02-11 16:39:00,34.9,30.8,30.22,WSW,247,0.0,0.0,85,0.00,,,0.00,WUHU21623XXSP,2013-02-12 00:39:00,
2013-02-11 16:44:00,34.9,30.8,30.22,WSW,247,0.0,0.0,85,0.00,,,0.00,WUHU21623XXSP,2013-02-12 00:44:00,
2013-02-11 16:49:00,34.9,30.8,30.21,WSW,247,0.0,0.0,85,0.00,,,0.00,WUHU21623XXSP,2013-02-12 00:49:00,
2013-02-11 16:54:00,34.5,30.7,30.21,WSW,247,0.0,0.0,86,0.00,,,0.00,WUHU21623XXSP,2013-02-12 00:54:00,
2013-02-11 16:59:00,34.3,30.5,30.21,WSW,247,0.0,0.0,86,0.00,,,0.00,WUHU21623XXSP,2013-02-12 00:59:00,
2013-02-11 17:04:00,34.3,30.5,30.22,WSW,247,0.0,0.0,86,0.00,,,0.00,WUHU21623XXSP,2013-02-12 01:04:00,
2013-02-11 17:09:00,34.3,30.5,30.22,WSW,247,0.0,0.0,86,0.00,,,0.00,WUHU21623XXSP,2013-02-12 01:09:00,
2013-02-11 17:14:00,34.0,30.2,30.22,WSW,247,0.0,0.0,86,0.00,,,0.00,WUHU21623XXSP,2013-02-12 01:14:00,
2013-02-11 17:19:00,33.8,30.3,30.22,WSW,247,0.0,0.0,87,0.00,,,0.00,WUHU21623XXSP,2013-02-12 01:19:00,
2013-02-11 17:24:00,33.6,30.1,30.22,WSW,247,0.0,0.0,87,0.00,,,0.00,WUHU21623XXSP,2013-02-12 01:24:00,
2013-02-11 17:29:00,33.6,30.1,30.22,WSW,247,0.0,0.0,87,0.00,,,0.00,WUHU21623XXSP,2013-02-12 01:29:00,
2013-02-11 17:34:00,33.6,30.1,30.22,WSW,247,0.0,0.0,87,0.00,,,0.00,WUHU21623XXSP,2013-02-12 01:34:00,
2013-02-11 17:39:00,33.4,30.1,30.22,WSW,247,0.0,0.0,88,0.00,,,0.00,WUHU21623XXSP,2013-02-12 01:39:00,
2013-02-11 17:44:00,33.4,30.1,30.22,WSW,247,0.0,0.0,88,0.00,,,0.00,WUHU21623XXSP,2013-02-12 01:44:00,
2013-02-11 17:49:00,33.3,30.0,30.22,WSW,247,0.0,0.0,88,0.00,,,0.00,WUHU21623XXSP,2013-02-12 01:49:00,
2013-02-11 17:54:00,33.1,30.1,30.22,WSW,247,0.0,0.0,89,0.00,,,0.00,WUHU21623XXSP,2013-02-12 01:54:00,
2013-02-11 17:59:00,33.1,30.1,30.22,WSW,247,0.0,0.0,89,0.00,,,0.00,WUHU21623XXSP,2013-02-12 01:59:00,
2013-02-11 18:04:00,32.9,29.9,30.23,WSW,247,0.0,0.0,89,0.00,,,0.00,WUHU21623XXSP,2013-02-12 02:04:00,
2013-02-11 18:09:00,32.7,29.7,30.22,WSW,247,0.0,0.0,89,0.00,,,0.00,WUHU21623XXSP,2013-02-12 02:09:00,
2013-02-11 18:14:00,32.7,29.7,30.22,WSW,247,0.0,0.0,89,0.00,,,0.00,WUHU21623XXSP,2013-02-12 02:14:00,
2013-02-11 18:19:00,32.5,29.5,30.22,WSW,247,0.0,0.0,89,0.00,,,0.00,WUHU21623XXSP,2013-02-12 02:19:00,
2013-02-11 18:24:00,32.7,30.0,30.23,WSW,247,0.0,0.0,90,0.00,,,0.00,WUHU21623XXSP,2013-02-12 02:24:00,
2013-02-11 18:29:00,32.7,30.0,30.23,WSW,247,0.0,0.0,90,0.00,,,0.00,WUHU21623XXSP,2013-02-12 02:29:00,
2013-02-11 18:34:00,32.7,30.0,30.23,WSW,247,0.0,0.0,90,0.00,,,0.00,WUHU21623XXSP,2013-02-12 02:34:00,
2013-02-11 18:39:00,32.7,30.0,30.23,WSW,247,0.0,0.0,90,0.00,,,0.00,WUHU21623XXSP,2013-02-12 02:39:00,
2013-02-11 18:44:00,32.5,29.8,30.22,WSW,247,0.0,0.0,90,0.00,,,0.00,WUHU21623XXSP,2013-02-12 02:44:00,
2013-02-11 18:49:00,32.5,29.8,30.22,WSW,247,0.0,0.0,90,0.00,,,0.00,WUHU21623XXSP,2013-02-12 02:49:00,
2013-02-11 18:54:00,32.4,29.7,30.22,WSW,247,0.0,0.0,90,0.00,,,0.00,WUHU21623XXSP,2013-02-12 02:54:00,
2013-02-11 18:59:00,32.4,29.7,30.23,WSW,247,0.0,0.0,90,0.00,,,0.00,WUHU21623XXSP,2013-02-12 02:59:00,
2013-02-11 19:04:00,32.4,29.7,30.23,WSW,247,0.0,0.0,90,0.00,,,0.00,WUHU21623XXSP,2013-02-12 03:04:00,
2013-02-11 19:09:00,32.4,29.7,30.22,WSW,247,0.0,0.0,90,0.00,,,0.00,WUHU21623XXSP,2013-02-12 03:09:00,
2013-02-11 19:14:00,32.4,30.0,30.23,WSW,247,0.0,0.0,91,0.00,,,0.00,WUHU21623XXSP,2013-02-12 03:14:00,
2013-02-11 19:19:00,32.4,30.0,30.23,WSW,247,0.0,0.0,91,0.00,,,0.00,WUHU21623XXSP,2013-02-12 03:19:00,
2013-02-11 19:24:00,32.2,29.8,30.23,WSW,247,0.0,0.0,91,0.00,,,0.00,WUHU21623XXSP,2013-02-12 03:24:00,
2013-02-11 19:29:00,32.2,29.8,30.23,WSW,247,0.0,0.0,91,0.00,,,0.00,WUHU21623XXSP,2013-02-12 03:29:00,
2013-02-11 19:34:00,32.2,29.8,30.22,WSW,247,0.0,0.0,91,0.00,,,0.00,WUHU21623XXSP,2013-02-12 03:34:00,
2013-02-11 19:39:00,32.4,30.0,30.22,WSW,247,0.0,0.0,91,0.00,,,0.00,WUHU21623XXSP,2013-02-12 03:39:00,
2013-02-11 19:44:00,32.2,29.8,30.23,WSW,247,0.0,0.0,91,0.00,,,0.00,WUHU21623XXSP,2013-02-12 03:44:00,
2013-02-11 19:49:00,32.2,29.8,30.22,WSW,247,0.0,0.0,91,0.00,,,0.00,WUHU21623XXSP,2013-02-12 03:49:00,
2013-02-11 19:54:00,32.2,29.8,30.22,WSW,247,0.0,0.0,91,0.00,,,0.00,WUHU21623XXSP,2013-02-12 03:54:00,
2013-02-11 19:59:00,32.2,30.0,30.23,WSW,247,0.0,0.0,92,0.00,,,0.00,WUHU21623XXSP,2013-02-12 03:59:00,
2013-02-11 20:04:00,32.2,30.0,30.23,WSW,247,0.0,0.0,92,0.00,,,0.00,WUHU21623XXSP,2013-02-12 04:04:00,
2013-02-11 20:10:00,32.2,30.0,30.23,WSW,247,0.0,0.0,92,0.00,,,0.00,WUHU21623XXSP,2013-02-12 04:10:00,
2013-02-11 20:14:00,32.2,30.0,30.23,WSW,247,0.0,0.0,92,0.00,,,0.00,WUHU21623XXSP,2013-02-12 04:14:00,
2013-02-11 20:19:00,32.2,30.0,30.22,WSW,247,0.0,0.0,92,0.00,,,0.00,WUHU21623XXSP,2013-02-12 04:19:00,
2013-02-11 20:25:00,32.2,30.0,30.22,WSW,247,0.0,0.0,92,0.00,,,0.00,WUHU21623XXSP,2013-02-12 04:25:00,
2013-02-11 20:30:00,32.2,30.3,30.23,WSW,247,0.0,0.0,93,0.00,,,0.00,WUHU21623XXSP,2013-02-12 04:30:00,
2013-02-11 20:35:00,32.2,30.3,30.23,WSW,247,0.0,0.0,93,0.00,,,0.00,WUHU21623XXSP,2013-02-12 04:35:00,
2013-02-11 20:40:00,32.2,30.3,30.23,WSW,247,0.0,0.0,93,0.00,,,0.00,WUHU21623XXSP,2013-02-12 04:40:00,
2013-02-11 20:45:00,32.2,30.3,30.23,WSW,247,0.0,0.0,93,0.00,,,0.00,WUHU21623XXSP,2013-02-12 04:45:00,
2013-02-11 20:50:00,32.0,30.1,30.23,WSW,247,0.0,0.0,93,0.00,,,0.00,WUHU21623XXSP,2013-02-12 04:50:00,
2013-02-11 20:55:00,31.8,29.9,30.23,WSW,247,0.0,0.0,93,0.00,,,0.00,WUHU21623XXSP,2013-02-12 04:55:00,
2013-02-11 21:00:00,31.8,29.9,30.23,WSW,247,0.0,0.0,93,0.00,,,0.00,WUHU21623XXSP,2013-02-12 05:00:00,
2013-02-11 21:05:00,31.8,29.9,30.23,WSW,247,0.0,0.0,93,0.00,,,0.00,WUHU21623XXSP,2013-02-12 05:05:00,
2013-02-11 21:10:00,31.8,29.9,30.23,WSW,247,0.0,0.0,93,0.00,,,0.00,WUHU21623XXSP,2013-02-12 05:10:00,
2013-02-11 21:15:00,31.8,29.9,30.23,WSW,247,0.0,0.0,93,0.00,,,0.00,WUHU21623XXSP,2013-02-12 05:15:00,
2013-02-11 21:20:00,31.8,29.9,30.24,WSW,247,0.0,0.0,93,0.00,,,0.00,WUHU21623XXSP,2013-02-12 05:20:00,
2013-02-11 21:25:00,31.8,29.9,30.23,WSW,247,0.0,0.0,93,0.00,,,0.00,WUHU21623XXSP,2013-02-12 05:25:00,
2013-02-11 21:30:00,31.8,29.9,30.23,WSW,247,0.0,0.0,93,0.00,,,0.00,WUHU21623XXSP,2013-02-12 05:30:00,
2013-02-11 21:35:00,31.8,29.9,30.23,West,270,0.0,0.0,93,0.00,,,0.00,WUHU21623XXSP,2013-02-12 05:35:00,
2013-02-11 21:40:00,31.8,29.9,30.23,West,270,0.0,0.0,93,0.00,,,0.00,WUHU21623XXSP,2013-02-12 05:40:00,
2013-02-11 21:45:00,31.8,29.9,30.24,West,270,0.0,0.0,93,0.00,,,0.00,WUHU21623XXSP,2013-02-12 05:45:00,
2013-02-11 21:50:00,31.8,29.9,30.23,West,270,0.0,0.0,93,0.00,,,0.00,WUHU21623XXSP,2013-02-12 05:50:00,
2013-02-11 21:55:00,31.8,29.9,30.23,West,270,0.0,0.0,93,0.00,,,0.00,WUHU21623XXSP,2013-02-12 05:55:00,
2013-02-11 22:00:00,31.8,30.2,30.22,West,270,0.0,0.0,94,0.00,,,0.00,WUHU21623XXSP,2013-02-12 06:00:00,
2013-02-11 22:05:00,31.8,30.2,30.22,West,270,0.0,0.0,94,0.00,,,0.00,WUHU21623XXSP,2013-02-12 06:05:00,
2013-02-11 22:10:00,31.8,30.2,30.23,West,270,0.0,0.0,94,0.00,,,0.00,WUHU21623XXSP,2013-02-12 06:10:00,
2013-02-11 22:15:00,31.6,30.0,30.23,West,270,0.0,0.0,94,0.00,,,0.00,WUHU21623XXSP,2013-02-12 06:15:00,
2013-02-11 22:20:00,31.6,30.0,30.23,West,270,0.0,0.0,94,0.00,,,0.00,WUHU21623XXSP,2013-02-12 06:20:00,
2013-02-11 22:25:00,31.6,30.0,30.23,West,270,0.0,0.0,94,0.00,,,0.00,WUHU21623XXSP,2013-02-12 06:25:00,
2013-02-11 22:30:00,31.6,30.0,30.23,West,270,0.0,0.0,94,0.00,,,0.00,WUHU21623XXSP,2013-02-12 06:30:00,
2013-02-11 22:35:00,31.6,30.0,30.24,West,270,0.0,0.0,94,0.00,,,0.00,WUHU21623XXSP,2013-02-12 06:35:00,
2013-02-11 22:40:00,31.6,30.0,30.24,West,270,0.0,0.0,94,0.00,,,0.00,WUHU21623XXSP,2013-02-12 06:40:00,
2013-02-11 22:45:00,31.6,30.0,30.24,West,270,0.0,0.0,94,0.00,,,0.00,WUHU21623XXSP,2013-02-12 06:45:00,
2013-02-11 22:50:00,31.6,30.0,30.24,West,270,0.0,0.0,94,0.00,,,0.00,WUHU21623XXSP,2013-02-12 06:50:00,
2013-02-11 22:55:00,31.6,30.2,30.24,West,270,0.0,0.0,95,0.00,,,0.00,WUHU21623XXSP,2013-02-12 06:55:00,
2013-02-11 23:00:00,31.6,30.2,30.24,West,270,0.0,0.0,95,0.00,,,0.00,WUHU21623XXSP,2013-02-12 07:00:00,
2013-02-11 23:05:00,31.6,30.2,30.24,West,270,0.0,0.0,95,0.00,,,0.00,WUHU21623XXSP,2013-02-12 07:05:00,
2013-02-11 23:10:00,31.6,30.2,30.23,West,270,0.0,0.0,95,0.00,,,0.00,WUHU21623XXSP,2013-02-12 07:10:00,
2013-02-11 23:15:00,31.6,30.2,30.23,West,270,0.0,0.0,95,0.00,,,0.00,WUHU21623XXSP,2013-02-12 07:15:00,
2013-02-11 23:20:00,31.3,29.9,30.24,West,270,0.0,0.0,95,0.00,,,0.00,WUHU21623XXSP,2013-02-12 07:20:00,
2013-02-11 23:25:00,31.3,29.9,30.23,West,270,0.0,0.0,95,0.00,,,0.00,WUHU21623XXSP,2013-02-12 07:25:00,
2013-02-11 23:30:00,31.3,29.9,30.23,West,270,0.0,0.0,95,0.00,,,0.00,WUHU21623XXSP,2013-02-12 07:30:00,
2013-02-11 23:35:00,31.3,29.9,30.23,West,270,0.0,0.0,95,0.00,,,0.00,WUHU21623XXSP,2013-02-12 07:35:00,
2013-02-11 23:40:00,31.3,29.9,30.23,West,270,0.0,0.0,95,0.00,,,0.00,WUHU21623XXSP,2013-02-12 07:40:00,
2013-02-11 23:45:00,31.3,29.9,30.23,West,270,0.0,0.0,95,0.00,,,0.00,WUHU21623XXSP,2013-02-12 07:45:00,
2013-02-11 23:50:00,31.6,30.2,30.24,West,270,0.0,0.0,95,0.00,,,0.00,WUHU21623XXSP,2013-02-12 07:50:00,
2013-02-11 23:55:00,31.6,30.2,30.24,West,270,0.0,0.0,95,0.00,,,0.00,WUHU21623XXSP,2013-02-12 07:55:00,